Find Starlink 3183

NORAD ID: 51134 Int'l Des: 2022-005 Owner: SPXS Country: US Constellation: starlink decayed
LEOCIRCULAR
Vis

Historical Track — Nov 16, 2025

正在加载3D地球...

关于 Starlink 3183

正在加载描述...

高度历史

Loading altitude history...

两行轨道根数

1 51134U 22005AG 25320.26910508 .09743751 12304-4 10607-2 0 9992
2 51134 53.2019 61.5493 0004580 311.9032 48.1624 16.36552487211994
Epoch: Nov 16, 2025 • Age: 4194 hours

当前状态

Position data unavailable
发射日期 Jan 19, 2022
运行时间 4.3 years
衰减日期 Nov 16, 2025
类型 internet

技术详情

分类 Payload
质量 297.00 kg
干质量 275.00 kg
总质量 297.00 kg
长度 0.20 m
直径 2.80 m
跨度 9.00 m
形状 Box + pan
制造商 SPXS
平台类型 Starlink
阶段状态 Reentered
所有者/国家 SPXS/US

Most Searched